Weather History for KMDS - February, 2013

Change the Weather History Date:

Wednesday, February 27, 2013

  Actual Average Record
Temperature  
Mean Temperature 24 °F -  
Max Temperature 30 °F 35 °F 30 °F (2013)
Min Temperature 17 °F 20 °F -13 °F (2014)
Degree Days  
Heating Degree Days 42    
Moisture  
Dew Point 23 °F    
Average Humidity 96    
Maximum Humidity 100    
Minimum Humidity 75    
Precipitation  
Precipitation 0.00 in - - ()
Sea Level Pressure  
Sea Level Pressure 30.03 in    
Wind  
Wind Speed 16 mph (NNW)    
Max Wind Speed 24 mph    
Max Gust Speed 31 mph    
Visibility 10 miles    
Events      
Averages and records for this station are not official NWS values.
T = Trace of Precipitation, MM = Missing Value Source: NWS Daily Summary

Daily Weather History Graph

Daily Weather History Graph

Search for Another Location

Airport or City:

Trip Planner

Search our weather history database for the weather conditions in past years. The results will help you decide how hot, cold, wet, or windy it might be!

Date:

Astronomy

Feb. 27, 2013 Rise Set
Actual Time 7:08 AM CST 6:14 PM CST
Civil Twilight 6:39 AM CST 6:43 PM CST
Nautical Twilight 6:05 AM CST 7:16 PM CST
Astronomical Twilight 5:32 AM CST 7:50 PM CST
Moon 8:44 PM CST (2/27) 7:38 AM CST (2/27)
Length of Visible Light 12h 04m
Length of Day
11h 06m
Waning Gibbous, 96% of the Moon is Illuminated
Feb 27
Waning Gibbous
Mar 4
Last Quarter
Mar 11
New
Mar 19
First Quarter
Mar 27
Full

Hourly Weather History & Observations

Time (CST) Temp. Windchill Dew Point Humidity Pressure Visibility Wind Dir Wind Speed Gust Speed Precip Events Conditions
12:15 AM 19.4 °F 7.2 °F 19.4 °F 100% 29.96 in 4.0 mi NNW 11.5 mph - N/A   Mostly Cloudy
12:35 AM 19.4 °F 6.0 °F 19.4 °F 100% 29.95 in 5.0 mi NNW 13.8 mph - N/A   Mostly Cloudy
12:55 AM 19.4 °F 5.0 °F 19.4 °F 100% 29.96 in 8.0 mi NNW 16.1 mph - N/A   Partly Cloudy
1:15 AM 19.4 °F 4.5 °F 19.4 °F 100% 29.96 in 10.0 mi NNW 17.3 mph - N/A   Clear
1:35 AM 17.6 °F - 17.6 °F 100% 29.96 in 10.0 mi North - - N/A   Clear
1:55 AM 17.6 °F 3.2 °F 17.6 °F 100% 29.96 in 10.0 mi NNW 15.0 mph - N/A   Clear
2:15 AM 17.6 °F 3.7 °F 17.6 °F 100% 29.96 in 10.0 mi NNW 13.8 mph - N/A   Clear
2:35 AM 17.6 °F 3.2 °F 17.6 °F 100% 29.96 in 10.0 mi NNW 15.0 mph 19.6 mph N/A   Clear
2:55 AM 17.6 °F 3.2 °F 17.6 °F 100% 29.96 in 10.0 mi NNW 15.0 mph - N/A   Clear
3:15 AM 17.6 °F 2.7 °F 17.6 °F 100% 29.96 in 10.0 mi NNW 16.1 mph - N/A   Clear
3:35 AM 17.6 °F 3.2 °F 17.6 °F 100% 29.96 in 10.0 mi North 15.0 mph - N/A   Clear
3:55 AM 17.6 °F 2.7 °F 17.6 °F 100% 29.96 in 10.0 mi NNW 16.1 mph - N/A   Clear
4:15 AM 17.6 °F 2.2 °F 17.6 °F 100% 29.96 in 10.0 mi NNW 17.3 mph - N/A   Clear
4:35 AM 17.6 °F 2.7 °F 17.6 °F 100% 29.96 in 10.0 mi NNW 16.1 mph - N/A   Clear
4:55 AM 19.4 °F 5.0 °F 19.4 °F 100% 29.96 in 10.0 mi NNW 16.1 mph - N/A   Clear
5:15 AM 19.4 °F 4.5 °F 19.4 °F 100% 29.96 in 10.0 mi NNW 17.3 mph - N/A   Clear
5:35 AM 19.4 °F 6.0 °F 19.4 °F 100% 29.97 in 10.0 mi NNW 13.8 mph - N/A   Clear
5:55 AM 19.4 °F 5.0 °F 19.4 °F 100% 29.98 in 10.0 mi NNW 16.1 mph - N/A   Clear
6:15 AM 19.4 °F 5.0 °F 19.4 °F 100% 29.98 in 10.0 mi NNW 16.1 mph - N/A   Clear
6:35 AM 21.2 °F 6.8 °F 21.2 °F 100% 29.98 in 10.0 mi NNW 17.3 mph - N/A   Clear
6:55 AM 21.2 °F 7.3 °F 21.2 °F 100% 29.99 in 10.0 mi NNW 16.1 mph - N/A   Clear
7:15 AM 21.2 °F 7.3 °F 21.2 °F 100% 29.99 in 10.0 mi NNW 16.1 mph - N/A   Clear
7:35 AM 23.0 °F 10.1 °F 23.0 °F 100% 30.00 in 10.0 mi NNW 15.0 mph - N/A   Clear
7:55 AM 23.0 °F 10.1 °F 23.0 °F 100% 30.01 in 10.0 mi NNW 15.0 mph - N/A   Clear
8:15 AM 23.0 °F 10.1 °F 23.0 °F 100% 30.01 in 10.0 mi NNW 15.0 mph - N/A   Clear
8:35 AM 23.0 °F 10.1 °F 23.0 °F 100% 30.02 in 10.0 mi North 15.0 mph - N/A   Clear
8:55 AM 24.8 °F 11.5 °F 23.0 °F 93% 30.02 in 10.0 mi North 17.3 mph - N/A   Clear
9:15 AM 24.8 °F 11.5 °F 23.0 °F 93% 30.03 in 10.0 mi North 17.3 mph - N/A   Clear
9:35 AM 26.6 °F 13.4 °F 23.0 °F 86% 30.04 in 10.0 mi NNW 18.4 mph - N/A   Clear
9:55 AM 26.6 °F 14.3 °F 23.0 °F 86% 30.04 in 10.0 mi NNW 16.1 mph - N/A   Clear
10:15 AM 26.6 °F 13.8 °F 23.0 °F 86% 30.04 in 10.0 mi NNW 17.3 mph 21.9 mph N/A   Clear
10:35 AM 26.6 °F 14.3 °F 23.0 °F 86% 30.04 in 10.0 mi NNW 16.1 mph 21.9 mph N/A   Clear
10:55 AM 28.4 °F 15.8 °F 23.0 °F 80% 30.04 in 10.0 mi NNW 18.4 mph 21.9 mph N/A   Clear
11:15 AM 28.4 °F 16.2 °F 23.0 °F 80% 30.04 in 10.0 mi North 17.3 mph - N/A   Clear
11:55 AM 30.2 °F 18.1 °F 23.0 °F 75% 30.05 in 10.0 mi NNW 18.4 mph 23.0 mph N/A   Clear
12:15 PM 30.2 °F 18.9 °F 24.8 °F 80% 30.04 in 10.0 mi NNW 16.1 mph - N/A   Clear
12:35 PM 30.2 °F 18.5 °F 24.8 °F 80% 30.04 in 10.0 mi NNW 17.3 mph 25.3 mph N/A   Clear
12:55 PM 30.2 °F 17.8 °F 24.8 °F 80% 30.04 in 10.0 mi NW 19.6 mph 23.0 mph N/A   Clear
1:15 PM 30.2 °F 18.9 °F 24.8 °F 80% 30.04 in 10.0 mi NNW 16.1 mph - N/A   Clear
1:35 PM 30.2 °F 18.9 °F 26.6 °F 86% 30.04 in 10.0 mi NW 16.1 mph - N/A   Clear
1:55 PM 28.4 °F 15.4 °F 26.6 °F 93% 30.04 in 10.0 mi NW 19.6 mph 23.0 mph N/A   Clear
2:15 PM 26.6 °F 13.4 °F 26.6 °F 100% 30.04 in 10.0 mi NW 18.4 mph - N/A   Clear
2:35 PM 26.6 °F 13.1 °F 26.6 °F 100% 30.04 in 10.0 mi NW 19.6 mph 26.5 mph N/A   Clear
2:55 PM 26.6 °F 13.1 °F 24.8 °F 93% 30.04 in 10.0 mi NW 19.6 mph 25.3 mph N/A   Clear
3:15 PM 26.6 °F 13.1 °F 26.6 °F 100% 30.04 in 10.0 mi NW 19.6 mph 26.5 mph N/A   Clear
3:35 PM 26.6 °F 13.4 °F 26.6 °F 100% 30.04 in 10.0 mi NW 18.4 mph - N/A   Clear
3:55 PM 24.8 °F 10.3 °F 24.8 °F 100% 30.05 in 10.0 mi NW 20.7 mph - N/A   Clear
4:15 PM 24.8 °F 9.6 °F 24.8 °F 100% 30.05 in 10.0 mi NW 23.0 mph 26.5 mph N/A   Clear
4:35 PM 24.8 °F 10.3 °F 24.8 °F 100% 30.05 in 10.0 mi NW 20.7 mph - N/A   Clear
4:55 PM 23.0 °F 8.3 °F 23.0 °F 100% 30.05 in 10.0 mi NNW 19.6 mph 26.5 mph N/A   Clear
5:15 PM 23.0 °F 8.0 °F 23.0 °F 100% 30.06 in 10.0 mi NNW 20.7 mph - N/A   Clear
5:35 PM 23.0 °F 8.0 °F 23.0 °F 100% 30.07 in 10.0 mi NNW 20.7 mph 29.9 mph N/A   Clear
5:55 PM 23.0 °F 8.3 °F 23.0 °F 100% 30.07 in 10.0 mi NNW 19.6 mph - N/A   Mostly Cloudy
6:15 PM 23.0 °F 10.1 °F 23.0 °F 100% 30.08 in 10.0 mi NNW 15.0 mph 21.9 mph N/A   Overcast
6:35 PM 23.0 °F 8.7 °F 23.0 °F 100% 30.08 in 10.0 mi NNW 18.4 mph 25.3 mph N/A   Overcast
6:55 PM 23.0 °F 8.3 °F 23.0 °F 100% 30.08 in 10.0 mi NNW 19.6 mph 28.8 mph N/A   Overcast
7:15 PM 24.8 °F 9.6 °F 24.8 °F 100% 30.08 in 10.0 mi NNW 23.0 mph 29.9 mph N/A   Overcast
7:55 PM 24.8 °F 10.3 °F 24.8 °F 100% 30.08 in 10.0 mi NNW 20.7 mph 29.9 mph N/A   Overcast
8:15 PM 24.8 °F 10.3 °F 24.8 °F 100% 30.09 in 10.0 mi NNW 20.7 mph 31.1 mph N/A   Overcast
8:35 PM 24.8 °F 10.3 °F 24.8 °F 100% 30.09 in 10.0 mi NNW 20.7 mph 26.5 mph N/A   Overcast
8:55 PM 24.8 °F 11.1 °F 24.8 °F 100% 30.10 in 10.0 mi NNW 18.4 mph 27.6 mph N/A   Overcast
9:15 PM 24.8 °F 9.3 °F 24.8 °F 100% 30.10 in 10.0 mi North 24.2 mph 29.9 mph N/A   Overcast
9:35 PM 24.8 °F 10.3 °F 24.8 °F 100% 30.10 in 10.0 mi North 20.7 mph 26.5 mph N/A   Overcast
9:55 PM 24.8 °F 10.3 °F 24.8 °F 100% 30.09 in 10.0 mi North 20.7 mph 29.9 mph N/A   Overcast
10:15 PM 24.8 °F 10.3 °F 24.8 °F 100% 30.10 in 10.0 mi North 20.7 mph 25.3 mph N/A   Overcast
10:35 PM 24.8 °F 10.3 °F 24.8 °F 100% 30.10 in 10.0 mi North 20.7 mph 25.3 mph N/A   Overcast
10:55 PM 24.8 °F 10.7 °F 24.8 °F 100% 30.10 in 10.0 mi North 19.6 mph 25.3 mph N/A   Overcast
11:15 PM 24.8 °F 11.5 °F 24.8 °F 100% 30.09 in 10.0 mi North 17.3 mph 23.0 mph N/A   Overcast
11:55 PM 23.0 °F 8.7 °F 23.0 °F 100% 30.10 in 10.0 mi NNW 18.4 mph 24.2 mph N/A   Mostly Cloudy